FW3145 Weather Reports


Display with metric or nautical units.
time (UTC)temp
F
wind
direction
speed
MPH
gust
MPH
rain 1hr
in
rain 24hr
in
rain mn
in
humidity
%
barometer
mb
20260509054510 58 231 0.0 0.0 0.00 0.00 0.00 79 1016.0
20260509053007 56 298 0.0 0.0 0.00 0.00 0.00 80 1015.9
20260509051503 55 300 0.0 0.0 0.00 0.00 0.00 81 1015.8
20260509050100 55 300 0.0 0.0 0.00 0.00 0.00 82 1015.5
20260509044559 53 300 0.0 0.0 0.00 0.00 0.00 82 1015.5
20260509043107 52 300 0.0 0.0 0.00 0.00 0.00 82 1015.3
20260509041600 52 300 0.0 0.0 0.00 0.00 0.00 82 1015.0
20260509040055 52 300 0.0 0.0 0.00 0.00 0.00 82 1014.7
20260509034601 52 299 0.0 0.0 0.00 0.00 0.00 82 1014.3
20260509033047 53 310 0.0 0.0 0.00 0.00 0.00 81 1014.2
20260509031548 54 311 0.0 0.0 0.00 0.00 0.00 81 1014.2
20260509030046 54 311 0.0 0.0 0.00 0.00 0.00 81 1014.5
20260509024545 54 313 0.0 0.0 0.00 0.00 0.00 81 1014.5
20260509023048 54 313 0.0 0.0 0.00 0.00 0.00 82 1014.6
20260509021544 53 313 0.0 0.0 0.00 0.00 0.00 82 1014.7
20260509020051 53 313 0.0 0.0 0.00 0.00 0.00 82 1014.6
20260509014541 52 314 0.0 0.0 0.00 0.00 0.00 82 1014.4
20260509013049 50 310 0.0 0.0 0.00 0.00 0.00 82 1014.2
20260509011539 50 309 0.0 0.0 0.00 0.00 0.00 82 1014.1
20260509010049 51 308 0.0 0.0 0.00 0.00 0.00 81 1014.0
20260509004535 51 308 0.0 0.0 0.00 0.00 0.00 81 1014.0
20260509003035 51 307 0.0 0.0 0.00 0.00 0.00 81 1013.9
20260509001533 51 319 0.0 0.0 0.00 0.00 0.00 81 1013.8
20260509000033 51 325 0.0 0.0 0.00 0.00 0.00 81 1013.7
20260508234536 51 334 0.0 0.0 0.00 0.00 0.00 80 1014.0
20260508233031 52 335 0.0 0.0 0.00 0.00 0.00 80 1014.0
20260508231529 52 332 0.0 0.0 0.00 0.00 0.00 79 1013.9
20260508230036 53 332 0.0 0.0 0.00 0.00 0.00 78 1013.9
20260508224534 54 338 0.0 0.0 0.00 0.00 0.00 77 1013.7
20260508223019 55 23 0.0 0.0 0.00 0.00 0.00 76 1013.4
20260508221534 56 26 0.0 0.0 0.00 0.00 0.00 76 1013.4
20260508220014 56 27 0.0 0.0 0.00 0.00 0.00 75 1013.6
20260508214513 56 30 0.0 0.0 0.00 0.00 0.00 76 1013.7
20260508213018 57 261 0.0 0.0 0.00 0.00 0.00 75 1013.7
20260508211507 58 261 0.0 0.0 0.00 0.00 0.00 75 1013.7
20260508210108 58 261 0.0 0.0 0.00 0.00 0.00 74 1013.7
20260508204506 59 261 0.0 0.0 0.00 0.00 0.00 73 1013.9
20260508203001 59 261 0.0 0.0 0.00 0.00 0.00 72 1013.8
20260508201559 59 261 0.0 0.0 0.00 0.00 0.00 71 1013.7
20260508200101 60 261 0.0 0.0 0.00 0.00 0.00 70 1013.5
20260508194553 60 260 0.0 0.0 0.00 0.00 0.00 69 1013.5
20260508193054 61 261 0.0 0.0 0.00 0.00 0.00 66 1013.5
20260508191554 61 259 0.0 0.0 0.00 0.00 0.00 65 1013.4
20260508190050 61 269 0.0 0.0 0.00 0.00 0.00 64 1013.2
20260508184544 61 279 0.0 0.0 0.00 0.00 0.00 63 1013.0
20260508183042 62 250 0.0 0.0 0.00 0.00 0.00 62 1012.6
20260508181538 63 288 0.0 0.0 0.00 0.00 0.00 59 1012.3
20260508180036 63 123 0.0 0.0 0.00 0.00 0.00 58 1012.1
20260508174539 64 77 0.0 0.0 0.00 0.00 0.00 57 1012.1
20260508173034 63 10 0.0 0.0 0.00 0.00 0.00 58 1011.8
20260508171533 64 32 0.0 0.0 0.00 0.00 0.00 57 1011.6
20260508170033 63 27 0.0 0.0 0.00 0.00 0.00 59 1011.5
20260508164536 63 18 0.0 0.0 0.00 0.00 0.00 59 1011.7
20260508163032 63 22 0.0 0.0 0.00 0.00 0.00 60 1011.6
20260508161531 63 5 0.0 0.0 0.00 0.00 0.00 60 1011.8
20260508160033 64 67 0.0 0.0 0.00 0.00 0.00 60 1011.6
20260508154531 64 13 0.0 0.0 0.00 0.00 0.00 59 1011.4
20260508153028 65 47 0.0 0.0 0.00 0.00 0.00 58 1011.2
20260508151528 66 88 0.0 0.0 0.00 0.00 0.00 59 1010.7
20260508150025 67 69 0.0 0.0 0.00 0.00 0.00 56 1010.6
20260508144524 70 85 0.0 0.0 0.00 0.00 0.00 54 1010.2
20260508143024 70 55 0.0 0.0 0.00 0.00 0.00 51 1010.2
20260508141523 69 77 0.0 0.0 0.00 0.00 0.00 52 1010.4
20260508140022 70 50 0.0 0.0 0.00 0.00 0.00 51 1010.6
20260508134521 70 75 0.0 0.0 0.00 0.00 0.00 51 1010.5
20260508133026 69 86 0.0 0.0 0.00 0.00 0.00 51 1010.6
20260508131520 69 55 0.0 0.0 0.00 0.00 0.00 51 1010.7
20260508130018 69 26 0.0 0.0 0.00 0.00 0.00 52 1010.4
20260508124517 69 78 0.0 0.0 0.00 0.00 0.00 48 1010.5
20260508123017 70 57 0.0 0.0 0.00 0.00 0.00 48 1010.3
20260508121515 71 86 0.0 0.0 0.00 0.00 0.00 48 1010.2
20260508120015 70 94 0.0 0.0 0.00 0.00 0.00 49 1010.1
20260508114514 71 80 0.0 0.0 0.00 0.00 0.00 49 1010.2
20260508113013 71 77 0.0 0.0 0.00 0.00 0.00 49 1010.2
20260508111514 70 118 0.0 0.0 0.00 0.00 0.00 51 1010.1
20260508110012 70 78 0.0 0.0 0.00 0.00 0.00 51 1010.2
20260508104511 70 25 0.0 0.0 0.00 0.00 0.00 52 1010.1
20260508103008 70 79 0.0 0.0 0.00 0.00 0.00 53 1010.0
20260508101506 69 151 0.0 0.0 0.00 0.00 0.00 62 1010.0
20260508100007 69 151 0.0 0.0 0.00 0.00 0.00 60 1010.0
20260508094502 69 181 0.0 0.0 0.00 0.00 0.00 60 1010.0
20260508093002 68 145 0.0 0.0 0.00 0.00 0.00 58 1010.0
20260508091619 67 166 0.0 0.0 0.00 0.00 0.00 60 1010.1
20260508090108 67 155 0.0 0.0 0.00 0.00 0.00 61 1010.1
20260508084553 66 171 0.0 0.0 0.00 0.00 0.00 62 1010.1
20260508083106 66 171 0.0 0.0 0.00 0.00 0.00 63 1010.0
20260508081556 66 240 0.0 0.0 0.00 0.00 0.00 64 1009.8
20260508080052 65 227 0.0 0.0 0.00 0.00 0.00 63 1009.7
20260508074540 66 191 0.0 0.0 0.00 0.00 0.00 62 1009.6
20260508073041 65 182 0.0 0.0 0.00 0.00 0.00 60 1009.4
20260508071535 65 234 0.0 0.0 0.00 0.00 0.00 63 1009.3
20260508070054 64 222 0.0 0.0 0.00 0.00 0.00 63 1009.2
20260508064532 64 273 0.0 0.0 0.00 0.00 0.00 64 1009.4
20260508063026 64 88 0.0 0.0 0.00 0.00 0.00 64 1009.2
20260508061522 64 198 0.0 0.0 0.00 0.00 0.00 61 1009.1
20260508060020 65 106 0.0 0.0 0.00 0.00 0.00 56 1009.1